Tracking 29777 objects as of 7-Oct-2024
HD Live streaming from Space Station
objects crossing your sky now

THORAD DELTA 1 DEB

Track THORAD DELTA 1 DEB now!
10-day predictions


NORAD ID: 8784
Int'l Code: 1974-089DL
Perigee: 974.6 km
Apogee: 1,328.7 km
Inclination: 100.9 °
Period: 108.2 minutes
Semi major axis: 7522 km
RCS: 0.0626 m2 (small)
Launch date: November 15, 1974
Source: United States (US)
Launch site: AIR FORCE WESTERN TEST RANGE (AFWTR)

Note: This is SATELLITE DEBRIS
Your satellite tracking list
Your tracking list is empty




NASA's NSSDC Master Catalog

Two Line Element Set (TLE):
1 08784U 74089DL  24280.76039933  .00023338  00000-0  42445-1 0  9990
2 08784 100.8942 269.8257 0235388 212.3805 323.8572 13.30597951449484
Source of the keplerian elements: AFSPC